TimeMDT,TemperatureF,Dew PointF,Humidity,Sea Level PressureIn,VisibilityMPH,Wind Direction,Wind SpeedMPH,Gust SpeedMPH,PrecipitationIn,Events,Conditions,WindDirDegrees,DateUTC
12:56 AM,64.0,35.1,34,29.65,10.0,South,15.0,-,N/A,,Clear,170,2012-09-10 06:56:00
1:56 AM,61.0,35.1,38,29.62,10.0,South,10.4,-,N/A,,Clear,170,2012-09-10 07:56:00
2:56 AM,57.0,35.1,44,29.60,10.0,SE,6.9,-,N/A,,Clear,140,2012-09-10 08:56:00
3:56 AM,53.1,35.1,50,29.60,10.0,SSE,5.8,-,N/A,,Clear,150,2012-09-10 09:56:00
4:56 AM,50.0,35.1,57,29.59,10.0,SSW,9.2,-,N/A,,Clear,200,2012-09-10 10:56:00
5:56 AM,51.1,34.0,52,29.60,10.0,WSW,8.1,-,N/A,,Clear,240,2012-09-10 11:56:00
6:56 AM,53.1,35.1,50,29.61,10.0,WNW,8.1,-,N/A,,Clear,290,2012-09-10 12:56:00
7:56 AM,63.0,34.0,34,29.60,10.0,West,6.9,-,N/A,,Clear,280,2012-09-10 13:56:00
8:56 AM,75.0,33.1,22,29.60,10.0,West,17.3,25.3,N/A,,Clear,280,2012-09-10 14:56:00
9:56 AM,81.0,32.0,17,29.61,10.0,West,17.3,-,N/A,,Clear,280,2012-09-10 15:56:00
10:56 AM,87.1,33.1,15,29.61,10.0,NW,16.1,-,N/A,,Clear,320,2012-09-10 16:56:00
11:56 AM,90.0,30.9,12,29.60,10.0,NNW,16.1,25.3,N/A,,Clear,330,2012-09-10 17:56:00
12:56 PM,91.9,30.9,11,29.60,10.0,NW,8.1,17.3,N/A,,Clear,320,2012-09-10 18:56:00
1:56 PM,93.0,30.9,11,29.59,10.0,NNE,6.9,-,N/A,,Clear,20,2012-09-10 19:56:00
2:56 PM,91.9,33.1,12,29.60,10.0,NW,12.7,-,N/A,,Clear,320,2012-09-10 20:56:00
3:56 PM,91.0,33.1,13,29.60,10.0,Variable,5.8,-,N/A,,Clear,0,2012-09-10 21:56:00
4:56 PM,91.9,34.0,13,29.59,10.0,WNW,5.8,-,N/A,,Clear,290,2012-09-10 22:56:00
5:56 PM,90.0,35.1,14,29.58,10.0,Calm,Calm,-,N/A,,Clear,0,2012-09-10 23:56:00
6:56 PM,79.0,37.9,23,29.60,8.0,NNE,6.9,-,N/A,,Clear,30,2012-09-11 00:56:00
7:56 PM,75.0,36.0,24,29.60,10.0,ENE,5.8,-,N/A,,Clear,60,2012-09-11 01:56:00
8:56 PM,66.9,36.0,32,29.61,9.0,ESE,5.8,-,N/A,,Clear,110,2012-09-11 02:56:00
10:56 PM,68.0,36.0,31,29.58,9.0,ENE,4.6,-,N/A,,Clear,70,2012-09-11 04:56:00
11:13 PM,66.2,37.4,35,29.71,9.0,WNW,17.3,24.2,N/A,Thunderstorm,Clear,290,2012-09-11 05:13:00
11:48 PM,71.6,39.2,31,29.67,9.0,NE,13.8,-,0.00,Rain,Light Rain,40,2012-09-11 05:48:00
11:56 PM,73.9,39.9,29,29.63,9.0,NNE,10.4,23.0,0.00,,Scattered Clouds,20,2012-09-11 05:56:00